Location: Chantarel
(45.1638°N, 1.7873°E)
Time: 07:15:56
(UTC+00:00)

Cosmos 2242 Rocket - Pass Details

Date: 03 March 2021
Orbit: 617 x 652 km, 82.5° (Epoch: 10 April)

Event Time Altitude Azimuth Distance (km) Brightness Sun altitude
Rises 19:05:47 0° 352° (N) 2,958 7.2 -15.4°
Reaches altitude 10° 19:08:04 10° 354° (N) 2,038 6.4 -15.8°
Maximum altitude 19:12:35 76° 81° (E) 658 3.5 -16.6°
Drops below altitude 10° 19:17:01 10° 167° (SSE) 2,000 6.0 -17.3°
Sets 19:19:14 0° 169° (S) 2,897 6.8 -17.7°
